Location: Little Italy
(37.8008°N, 122.4108°W)
Time: 21:39:45
(UTC+00:00)

ATLAS 3B R/B - Pass Details

Date: 29 October 2020
Orbit: 1014 x 1181 km, 63.8° (Epoch: 23 November)

Event Time Altitude Azimuth Distance (km) Brightness Sun altitude
Exits shadow 12:44:57 40° 263° (W) 1,451 2.9 -21.8°
Maximum altitude 12:46:45 51° 308° (NW) 1,267 2.7 -21.4°
Drops below altitude 10° 12:53:11 10° 23° (NNE) 2,832 5.2 -20.1°
Sets 12:55:56 0° 29° (NNE) 3,804 5.9 -19.6°
